STARLINK-11306, 61254

Orbit data source: Space-Track

STARLINK-11306, 61254 is a payload satellite owned by SpaceX/Seattle (US) in LEO that was launched on Wed, 25 Sep 2024 UTC via an FALCON 9 launch vehicle from the Air Force Western Test Range (AFWTR). Payload-class satellites include a variety of spacecraft equipped with specific instruments for various scientific and technological missions. These include communications satellites like Starlink; space stations such as the ISS; scientific satellites like the Hubble; Earth observation satellites from companies like Planet Labs, Umbra, and HawkEye 360; GPS; miniature CubeSats for education and research; and military/defense satellites.

Loading next visibility...
Identifier
61254, 2024-175M
Orbit
LEO
Country
Flag of USUS
Related business
Manufacturer
SpaceX/Seattle
Mission
Operational Commercial Communications
Bus & Motor
STARLINK V2MD, Unknown motor
Mass
960 kg wet, ~910 kg dry
Launch date (UTC)
2024-09-25 (1 year ago)
Launch vehicle
FALCON 9
Launch site
Air Force Western Test Range (AFWTR)
Object type
Payload
Rocket body
Debris
Shape & HBR
Box + 2 Pan, 14.5 m
Radar Cross Section
36.964 m², Large (>1 m²)

Expand to show TLE details & history
Last TLE update: 11 hours ago

TLE from 11 hours ago
0 STARLINK-11306
1 61254U 24175M   25260.18459432 -.00000911  00000-0 -26614-5 0  9995
2 61254  53.1581 191.7186 0001012  84.7653 275.3480 15.69716039 57315
Epoch: 2025-09-17T04:25Z
TLE epoch observation values (Epoch: 2025-09-17T04:25:48.949Z)
Latitude
-0.00004°
Longitude
128.90044°
Altitude
360.561 km
Speed
7.694 km/s
True Right ascension
12h 46m 52s
True Declination
0° 00' 00"
Sunlit
Object was in daylight at epoch
Visualization orbit readout
Latitude
Unknown
Longitude
Unknown
Altitude
Unknown
Speed
Unknown
Apparent Right ascension
Unknown
Apparent Declination
Unknown
Sunlit
N/A
Visualization observer readout
Local Sidereal Time
08:29:55
Azimuth
Unknown
Elevation
Unknown
Doppler factor
Unknown
Orbital elements
Apogee altitude
360.652 km
Perigee altitude
359.289 km
Semi-major axis
6,738.107 km
Eccentricity
0.0001
Inclination
53.1581°
RAAN
191.7186°
Arg. of periapsis
84.7653°
True anomaly
275.33645°
Mean anomaly
275.348°
Eccentric anomaly
275.34223°
Mean motion
3.92407 °/min
Orbital period
91.74 mins
BSTAR
-0.0000026614
Loading maneuver chart data...
Computing Atmospheric mass density...
Loading historical data...
Loading historical data...
Loading historical data...
Loading historical data...
Loading historical data...
Loading historical data...
Loading historical data...

Documentation

Showing up to 5 results
|